Current weather by "City, St" or "zip code"  
 
Advertise Here

Current Conditions: Cocoa Beach, Cape Canaveral Air Force Station Skid Strip, FL

Fair


69.0 F

Last Updated on Nov 23 2020, 8:56 pm EST
Humidity: 74%
Wind Speed: N 9.2 mph
Barometer 30.11 in
Dewpoint: 60.1 F
Visibility: 10.00 mi
Precip: --
Heat Index: NA
Wind Chill: NA
Current conditions at:

Cocoa Beach, Cape Canaveral Air Force Station Skid Strip, FL (KXMR)

Lat: 28.46667 Lon: 80.56667

Local Radar Image active severe weather and emergency alerts image image weather storm and storm spotter reports image weather observation monitoring service image
Local
Radar
Active
Alerts
Storm Reports Obs
Monitoring

Sign-up For Email & Text Message Weather Alert Notification Services


Advertise Here

Observation History for Cocoa Beach, Cape Canaveral Air Force Station Skid Strip, FL


Time Wind
(mph)
Vis
(mi)
Weather Precip (in) Temperature (F) Relative
Humidity
Wind
Chill
(F)
Heat
Index
(F)
Pressure
Air Dwpt altimeter
(in)
sea level
(mb)
Rmks
8:56 pm EST N 9.2 10.00 Fair -- 69.0 60.1 74% NA NA 30.11 1019.9
7:56 pm EST N 8.1 10.00 Fair -- 69.0 59.4 72% NA NA 30.09 1019.3
6:56 pm EST N 8.1 10.00 Fair -- 69.0 59.0 71% NA NA 30.09 1019.3
4:56 pm EST N 10.4 10.00 Fair -- 72.0 60.3 67% NA NA 30.06 1018.2
2:56 pm EST N 17.3 G 23.0 10.00 Fair -- 74.0 60.4 62% NA NA 30.03 1017.2
1:56 pm EST N 17.3 10.00 Fair -- 75.0 61.5 63% NA NA 30.04 1017.6
12:56 pm EST N 16.1 G 27.6 10.00 A Few Clouds -- 74.0 62.4 67% NA NA 30.05 1017.9
11:56 am EST N 16.1 G 21.9 10.00 A Few Clouds -- 74.0 65.7 74% NA NA 30.06 1018.2
10:56 am EST N 18.4 G 21.9 10.00 A Few Clouds -- 74.0 66.0 76% NA NA 30.07 1018.6
9:56 am EST N 13.8 G 19.6 10.00 Fair -- 73.0 66.4 81% NA NA 30.07 1018.6
8:56 am EST N 11.5 10.00 Fair -- 71.0 67.5 89% NA NA 30.05 1017.9
6:56 am EST NW 9.2 10.00 Mostly Cloudy -- 69.0 66.6 93% NA NA 30.03 1017.2
5:56 am EST NW 10.4 10.00 Overcast -- 69.0 66.7 93% NA NA 30.02 1016.9
4:56 am EST NW 10.4 10.00 Overcast -- 69.0 67.1 94% NA NA 30.01 1016.5
3:56 am EST NW 9.2 10.00 Overcast -- 69.0 67.5 94% NA NA 30.01 1016.5
2:56 am EST NW 9.2 10.00 Overcast -- 69.0 67.6 94% NA NA 30.01 1016.5
1:56 am EST NW 6.9 10.00 Overcast -- 70.0 68.0 94% NA NA 30.02 1016.9
12:56 am EST NW 8.1 10.00 Mostly Cloudy -- 70.0 68.5 94% NA NA 30.03 1017.2
11:56 pm EST NW 5.8 10.00 Overcast -- 71.0 69.1 94% NA NA 30.05 1017.9
10:56 pm EST NW 4.6 10.00 Fair -- 71.0 68.9 94% NA NA 30.05 1017.9
9:56 pm EST N 4.6 10.00 Fair -- 70.0 68.5 94% NA NA 30.05 1017.9

Regional Weather Observation


Cocoa Beach, Cape Canaveral Air Force Station Skid Strip, FL (KXMR)

Fair
69.0 F

Cocoa - Patrick Air Force Base, FL (KCOF)

Fair
69.0 F

Melbourne International Airport, FL (KMLB)

Fair
66.0 F

Orlando / Sanford Airport, FL (KSFB)

Fair
65.0 F

New Smyrna Beach Municipal Airport, FL (KEVB)

Fair
NULL F

Orlando Executive Airport, FL (KORL)

Fair
67.0 F